Vorticity
nan nan nan nan nan nan nan nan nan nan nan nan nan nan nan nan nan nan nan nan nan nan nan nan nan nan nan nan nan nan nan nan nan nan nan nan nan nan nan nan nan nan nan nan
nan 9 9 8 7 7 9 14 7 9 11 8 8 8 9 8 7 5 10 9 8 7 11 11 5 6 3 14 15 10 12 11 11 5 3 -0 9 9 11 11 10 6 10 nan
nan 9 10 9 8 8 8 10 6 8 10 12 10 9 11 7 9 12 10 8 6 9 10 8 8 5 8 10 6 9 18 9 7 9 2 3 4 10 9 8 7 12 5 nan
nan 10 10 10 10 7 4 11 14 9 4 10 11 13 11 5 9 12 6 7 9 13 10 10 9 7 8 8 10 12 12 7 2 5 8 12 7 8 13 14 7 3 1 nan
nan 9 10 11 10 4 6 9 7 12 11 14 12 6 6 8 12 13 9 6 5 10 11 11 6 9 13 8 4 10 10 9 9 8 8 8 17 20 14 10 10 8 12 nan
nan 8 9 10 8 1 4 7 11 10 7 14 13 11 9 7 6 6 12 12 11 7 9 10 12 11 8 7 6 10 11 8 12 6 7 13 18 16 12 13 17 13 14 nan
nan 8 9 9 9 -1 3 10 12 10 13 11 5 9 10 9 11 8 4 8 13 12 11 11 12 13 15 12 13 10 8 10 9 9 8 15 4 4 16 10 11 14 9 nan
nan 9 9 8 9 4 2 9 11 10 15 6 6 13 12 9 11 11 10 11 11 10 9 10 11 11 14 18 16 11 10 8 10 15 9 4 12 7 6 15 7 3 3 nan
nan 10 10 9 9 6 4 9 9 11 13 7 11 12 15 14 9 11 14 14 12 9 9 11 11 11 6 9 18 18 10 8 7 7 11 11 10 5 6 21 1 -7 12 nan
nan 7 13 12 8 4 5 10 9 9 8 9 13 12 8 8 14 14 9 10 7 10 10 11 9 11 10 9 9 12 12 12 10 9 10 7 4 6 18 14 -2 6 16 nan
nan 8 12 13 9 4 5 10 11 9 7 8 9 9 8 9 13 11 4 7 11 11 13 11 11 11 9 10 9 10 13 12 7 9 8 3 4 11 17 5 6 10 9 nan
nan 9 10 11 10 6 1 8 12 10 10 8 9 10 6 7 7 9 15 9 10 11 7 8 11 10 12 12 11 10 12 11 13 12 1 2 9 12 7 11 11 11 10 nan
nan 10 10 9 9 7 2 6 10 10 9 14 12 12 11 11 11 7 8 9 11 12 12 10 9 10 10 10 9 5 7 11 10 7 8 6 9 14 11 7 10 14 12 nan
nan 10 9 10 10 7 3 5 9 9 11 10 7 14 19 16 15 9 5 5 8 12 13 12 11 9 10 9 8 9 11 5 12 5 4 11 13 10 8 10 10 13 14 nan
nan 11 10 10 11 5 3 7 11 11 10 8 8 13 16 12 18 20 8 7 9 8 10 11 10 8 10 11 12 15 11 10 9 11 13 12 6 6 10 17 16 13 12 nan
nan 11 11 9 9 1 1 9 13 15 9 9 11 13 13 20 19 10 13 10 10 12 10 9 11 10 10 10 11 15 6 9 4 3 13 9 8 17 17 13 9 9 10 nan
nan 12 10 10 3 -1 7 10 22 15 5 9 10 13 16 11 8 11 12 13 13 11 9 12 11 11 12 10 11 4 3 8 12 11 14 13 16 12 11 9 8 7 11 nan
nan 11 12 11 0 -4 6 15 16 8 10 10 12 12 13 13 6 11 10 11 10 11 10 10 14 12 9 9 9 8 10 16 13 15 16 14 12 10 10 7 6 9 9 nan
nan 9 -1 -2 6 12 21 12 1 8 12 11 10 12 10 10 10 7 12 13 10 12 10 12 11 11 7 8 9 10 18 17 6 13 10 10 10 9 8 8 9 9 9 nan
nan -4 8 13 24 13 5 6 7 10 10 11 10 11 14 9 11 10 11 11 10 13 11 10 8 12 14 12 8 8 13 9 13 11 8 11 11 11 10 9 8 10 10 nan
nan 11 13 20 11 -1 5 13 11 10 11 11 15 11 7 9 14 13 8 10 11 10 18 10 6 11 21 28 26 12 7 12 14 11 14 12 11 11 7 8 9 10 10 nan
nan 10 10 9 5 13 12 9 11 11 11 13 14 15 9 8 10 12 14 9 9 14 14 7 10 16 17 13 16 24 19 10 8 10 12 12 10 6 9 10 10 10 11 nan
nan 7 11 8 12 12 12 9 10 10 14 14 12 12 11 11 12 11 13 11 10 10 11 13 10 10 10 10 12 9 11 8 8 8 8 8 8 9 10 13 13 9 9 nan
nan 13 10 9 10 12 13 11 12 12 15 16 9 8 12 10 12 12 10 9 9 12 13 11 9 13 12 11 10 8 8 8 8 10 12 9 9 12 12 12 12 9 8 nan
nan 12 12 10 10 13 11 11 10 13 18 15 6 8 11 12 11 12 9 12 14 12 10 11 13 12 9 11 10 10 8 8 10 10 11 12 11 10 11 12 13 10 8 nan
nan 11 11 13 14 11 10 12 11 11 13 10 10 13 10 12 11 13 12 11 11 11 12 12 9 6 7 9 9 9 11 12 12 13 10 9 10 10 12 15 15 12 9 nan
nan nan nan nan nan nan nan nan nan nan nan nan nan nan nan nan nan nan nan nan nan nan nan nan nan nan nan nan nan nan nan nan nan nan nan nan nan nan nan nan nan nan nan nan
CAPE
7 1 0 0 0 0 0 0 0 0 0 0 0 0 0 0 0 0 0 0 1 0 0 1 0 1 13 28 3 0 0 0 0 10 1 0 4 2 5 1 0 0 0 19
8 5 0 0 0 0 0 0 0 0 0 0 0 0 0 0 0 0 0 0 0 0 1 2 0 0 5 16 0 0 2 2 0 0 0 0 0 21 34 7 0 1 0 0
16 7 2 0 0 0 0 0 0 0 0 0 0 0 0 0 0 0 0 0 0 0 0 0 0 0 6 0 2 91 21 15 4 2 1 0 0 0 16 9 0 0 0 0
22 14 6 0 0 0 0 0 0 0 0 0 0 0 0 0 0 0 0 0 0 0 2 0 0 0 0 0 0 0 8 10 2 0 0 0 0 0 0 1 0 0 0 0
18 24 13 1 0 0 0 0 0 0 0 0 0 0 0 0 0 0 0 0 2 0 0 0 0 0 0 0 0 0 0 0 0 0 0 0 0 0 0 0 0 0 0 0
18 26 16 6 6 0 0 0 0 0 0 0 0 0 0 0 0 0 0 0 0 0 0 0 0 0 0 0 0 0 0 0 0 0 0 0 0 0 0 0 0 0 0 0
21 39 24 8 12 0 0 0 0 0 0 0 0 0 0 0 0 0 0 0 0 0 0 0 0 0 0 0 0 0 0 0 0 0 0 0 0 0 0 1 22 17 2 0
26 43 38 10 9 6 0 0 0 1 0 0 0 0 0 0 0 0 0 0 0 0 0 0 0 0 0 0 0 0 0 0 0 0 0 0 0 4 0 0 1 0 0 0
38 42 51 31 10 14 0 0 0 0 0 0 0 0 0 0 0 0 0 0 0 0 0 0 0 0 0 0 0 0 0 0 0 0 2 3 1 11 0 2 0 0 0 0
32 40 52 52 30 20 0 0 0 0 0 0 0 0 0 0 0 0 0 0 0 0 0 0 0 0 0 0 0 0 0 0 0 0 2 0 0 0 0 0 0 0 1 1
36 39 63 59 53 28 2 0 10 1 0 0 0 0 0 0 0 0 0 0 0 0 0 2 1 0 0 1 0 0 0 4 0 0 0 0 0 0 0 0 0 0 0 8
40 50 54 62 63 54 14 0 13 31 24 2 0 0 0 0 0 0 0 0 0 0 1 9 2 0 0 0 0 0 0 0 7 0 0 0 0 0 0 0 0 0 0 0
47 43 72 59 61 47 19 0 2 3 0 0 0 0 0 0 0 0 0 0 0 0 0 0 0 0 0 0 0 0 0 0 0 0 0 0 0 0 0 1 5 0 0 0
57 54 61 50 46 40 20 0 1 7 0 0 0 0 0 0 0 0 0 0 0 0 0 9 8 5 0 0 0 0 0 0 0 0 0 0 0 1 0 0 2 8 18 15
59 64 62 47 43 48 16 1 1 5 0 2 0 0 0 0 0 0 0 0 0 0 12 11 8 0 0 0 0 0 0 0 0 0 0 0 2 0 1 31 3 2 0 0
53 54 55 43 36 26 5 3 0 0 5 0 0 0 0 0 0 0 0 0 0 0 5 2 0 0 6 9 1 0 0 0 0 0 0 5 0 1 10 0 0 0 0 0
56 55 56 61 64 11 13 0 1 0 11 12 0 0 0 0 0 0 0 1 14 10 6 6 0 0 16 6 0 0 0 0 0 0 20 0 4 0 0 0 0 0 0 0
60 61 59 62 64 35 20 1 24 0 0 0 1 0 0 1 0 1 8 9 5 6 2 4 1 0 2 1 0 0 0 0 0 0 0 0 0 0 0 0 0 0 1 4
61 68 65 26 7 5 12 25 27 4 1 1 1 0 0 0 0 1 0 6 4 0 1 0 0 2 3 0 0 0 0 0 2 0 0 0 0 0 0 1 2 1 5 5
71 0 4 1 1 49 12 23 11 14 11 5 1 0 0 0 0 0 0 6 1 6 0 0 0 0 0 0 0 0 0 4 0 0 0 0 0 0 0 0 0 0 6 10
0 5 6 0 56 6 1 0 4 0 8 0 0 0 0 2 5 7 0 1 1 5 0 0 0 0 0 0 0 0 0 0 0 0 0 0 0 0 0 0 1 1 3 2
0 4 2 17 10 5 2 1 0 4 0 0 0 0 0 0 0 0 2 0 0 0 0 2 4 0 3 0 0 0 0 0 0 0 0 0 0 0 0 1 0 0 0 0
0 0 0 0 2 6 3 2 10 0 0 0 0 0 0 13 11 0 0 3 0 0 9 6 0 1 0 0 0 3 1 0 0 0 0 0 0 0 0 0 0 0 0 0
1 1 0 1 0 0 0 0 0 0 0 0 0 0 4 7 0 0 0 0 0 7 3 0 1 0 0 0 0 5 0 0 0 0 0 0 1 0 0 0 0 0 0 1
0 0 0 0 0 0 0 0 1 9 11 0 1 6 0 1 0 0 0 1 0 0 7 2 0 5 0 4 11 0 0 0 0 0 0 0 0 0 0 0 0 0 0 0
0 0 0 0 0 0 0 0 0 0 0 3 5 8 12 19 3 1 0 2 0 2 2 0 0 0 0 0 0 0 0 1 0 0 0 0 0 0 0 0 0 0 0 0
0 0 0 0 3 0 0 0 0 0 0 2 0 5 2 2 4 0 0 0 0 2 0 0 0 0 0 0 0 0 0 0 0 0 0 0 0 0 0 0 0 0 0 0